Time,TemperatureF,DewpointF,PressureIn,WindDirection,WindDirectionDegrees,WindSpeedMPH,WindSpeedGustMPH,Humidity,HourlyPrecipIn,Conditions,Clouds,dailyrainin,SoftwareType,DateUTC
2013-05-06 00:02:00,58.0,50.0,29.98,ENE,76,1.0,3.0,75,0.00,,,0.01,,2013-05-06 04:02:00,
2013-05-06 00:12:00,58.0,50.0,29.98,ENE,76,1.0,3.0,75,0.00,,,0.01,,2013-05-06 04:12:00,
2013-05-06 00:23:00,58.0,51.0,29.98,NE,48,2.0,4.0,77,0.00,,,0.01,,2013-05-06 04:23:00,
2013-05-06 00:32:00,58.0,51.0,29.98,NNE,19,1.0,2.0,77,0.00,,,0.01,,2013-05-06 04:32:00,
2013-05-06 00:42:00,58.0,51.0,29.98,NNE,19,1.0,2.0,77,0.00,,,0.01,,2013-05-06 04:42:00,
2013-05-06 00:53:00,58.0,51.0,29.97,North,5,2.0,4.0,78,0.00,,,0.01,,2013-05-06 04:53:00,
2013-05-06 01:02:00,58.0,51.0,29.97,North,5,2.0,4.0,78,0.00,,,0.01,,2013-05-06 05:02:00,
2013-05-06 01:12:00,58.0,51.0,29.97,North,5,2.0,4.0,78,0.00,,,0.01,,2013-05-06 05:12:00,
2013-05-06 01:22:00,58.0,51.0,29.96,NNE,30,3.0,4.0,78,0.00,,,0.01,,2013-05-06 05:22:00,
2013-05-06 01:32:00,58.0,51.0,29.96,NNE,16,4.0,6.0,78,0.00,,,0.01,,2013-05-06 05:32:00,
2013-05-06 01:42:00,58.0,51.0,29.96,NNE,16,4.0,6.0,78,0.00,,,0.01,,2013-05-06 05:42:00,
2013-05-06 01:52:00,58.0,51.0,29.96,NE,37,3.0,6.0,77,0.00,,,0.01,,2013-05-06 05:52:00,
2013-05-06 02:02:00,58.0,51.0,29.95,NE,44,3.0,6.0,77,0.00,,,0.01,,2013-05-06 06:02:00,
2013-05-06 02:12:00,58.0,51.0,29.95,NE,44,3.0,6.0,77,0.00,,,0.01,,2013-05-06 06:12:00,
2013-05-06 02:21:00,59.0,51.0,29.94,NNE,25,4.0,7.0,75,0.00,,,0.01,,2013-05-06 06:21:00,
2013-05-06 02:31:00,59.0,51.0,29.94,NNE,28,5.0,11.0,74,0.00,,,0.01,,2013-05-06 06:31:00,
2013-05-06 02:42:00,59.0,51.0,29.94,NNE,28,5.0,11.0,74,0.00,,,0.01,,2013-05-06 06:42:00,
2013-05-06 02:52:00,59.0,50.0,29.93,NNE,20,7.0,11.0,73,0.00,,,0.01,,2013-05-06 06:52:00,
2013-05-06 03:01:00,59.0,50.0,29.93,NNE,27,7.0,11.0,73,0.00,,,0.01,,2013-05-06 07:01:00,
2013-05-06 03:11:00,59.0,50.0,29.93,NNE,27,7.0,11.0,73,0.00,,,0.01,,2013-05-06 07:11:00,
2013-05-06 03:22:00,59.0,51.0,29.92,NE,47,8.0,12.0,74,0.00,,,0.01,,2013-05-06 07:22:00,
2013-05-06 03:31:00,59.0,51.0,29.92,NNE,22,7.0,13.0,75,0.00,,,0.01,,2013-05-06 07:31:00,
2013-05-06 03:42:00,59.0,51.0,29.92,NNE,22,7.0,13.0,75,0.00,,,0.01,,2013-05-06 07:42:00,
2013-05-06 03:52:00,58.0,50.0,29.92,NNE,26,5.0,9.0,76,0.00,,,0.01,,2013-05-06 07:52:00,
2013-05-06 04:01:00,58.0,51.0,29.91,ENE,71,5.0,9.0,77,0.00,,,0.01,,2013-05-06 08:01:00,
2013-05-06 04:12:00,58.0,51.0,29.91,ENE,71,5.0,9.0,77,0.00,,,0.01,,2013-05-06 08:12:00,
2013-05-06 04:22:00,57.0,50.0,29.91,NNE,25,3.0,5.0,78,0.00,,,0.00,,2013-05-06 08:22:00,
2013-05-06 04:31:00,57.0,50.0,29.91,NE,43,4.0,7.0,78,0.00,,,0.00,,2013-05-06 08:31:00,
2013-05-06 04:41:00,57.0,50.0,29.91,NE,43,4.0,7.0,78,0.00,,,0.00,,2013-05-06 08:41:00,
2013-05-06 04:52:00,57.0,50.0,29.92,ENE,71,3.0,7.0,77,0.00,,,0.00,,2013-05-06 08:52:00,
2013-05-06 05:01:00,57.0,50.0,29.92,NE,37,4.0,6.0,76,0.00,,,0.00,,2013-05-06 09:01:00,
2013-05-06 05:11:00,57.0,50.0,29.92,NE,37,4.0,6.0,76,0.00,,,0.00,,2013-05-06 09:11:00,
2013-05-06 05:22:00,57.0,49.0,29.92,NE,41,4.0,6.0,74,0.00,,,0.00,,2013-05-06 09:22:00,
2013-05-06 05:32:00,57.0,48.0,29.93,NNE,32,2.0,9.0,73,0.00,,,0.00,,2013-05-06 09:32:00,
2013-05-06 05:42:00,57.0,48.0,29.93,NNE,32,2.0,9.0,73,0.00,,,0.00,,2013-05-06 09:42:00,
2013-05-06 05:53:00,57.0,47.0,29.93,East,82,2.0,10.0,69,0.00,,,0.00,,2013-05-06 09:53:00,
2013-05-06 06:02:00,57.0,47.0,29.93,ENE,71,2.0,4.0,69,0.00,,,0.00,,2013-05-06 10:02:00,
2013-05-06 06:12:00,57.0,47.0,29.93,ENE,71,2.0,4.0,69,0.00,,,0.00,,2013-05-06 10:12:00,
2013-05-06 06:22:00,56.0,46.0,29.93,NE,51,2.0,4.0,69,0.00,,,0.00,,2013-05-06 10:22:00,
2013-05-06 07:31:00,57.0,47.0,29.95,ENE,70,2.0,5.0,69,0.00,,,0.00,,2013-05-06 11:31:00,
2013-05-06 07:42:00,57.0,47.0,29.95,ENE,70,2.0,5.0,69,0.00,,,0.00,,2013-05-06 11:42:00,
2013-05-06 07:52:00,58.0,47.0,29.96,NE,56,4.0,6.0,67,0.00,,,0.00,,2013-05-06 11:52:00,
2013-05-06 08:01:00,58.0,47.0,29.97,ENE,69,4.0,6.0,67,0.00,,,0.00,,2013-05-06 12:01:00,
2013-05-06 08:12:00,58.0,47.0,29.97,ENE,69,4.0,6.0,67,0.00,,,0.00,,2013-05-06 12:12:00,
2013-05-06 08:21:00,58.0,47.0,29.97,NE,56,2.0,6.0,68,0.00,,,0.00,,2013-05-06 12:21:00,
2013-05-06 08:32:00,58.0,47.0,29.97,ENE,77,3.0,6.0,68,0.00,,,0.00,,2013-05-06 12:32:00,
2013-05-06 08:41:00,58.0,47.0,29.97,ENE,77,3.0,6.0,68,0.00,,,0.00,,2013-05-06 12:41:00,
2013-05-06 08:52:00,59.0,48.0,29.97,NE,47,4.0,5.0,67,0.00,,,0.00,,2013-05-06 12:52:00,
2013-05-06 09:01:00,59.0,48.0,29.98,NE,44,3.0,6.0,67,0.00,,,0.00,,2013-05-06 13:01:00,
2013-05-06 09:11:00,59.0,48.0,29.98,NE,44,3.0,6.0,67,0.00,,,0.00,,2013-05-06 13:11:00,
2013-05-06 09:21:00,60.0,49.0,29.98,North,11,5.0,8.0,66,0.00,,,0.00,,2013-05-06 13:21:00,
2013-05-06 09:32:00,60.0,49.0,29.98,ENE,65,3.0,6.0,66,0.00,,,0.00,,2013-05-06 13:32:00,
2013-05-06 09:42:00,60.0,49.0,29.98,ENE,65,3.0,6.0,66,0.00,,,0.00,,2013-05-06 13:42:00,
2013-05-06 09:52:00,61.0,50.0,29.98,NE,39,6.0,10.0,66,0.00,,,0.00,,2013-05-06 13:52:00,
2013-05-06 10:01:00,61.0,50.0,29.98,NE,47,4.0,8.0,66,0.00,,,0.00,,2013-05-06 14:01:00,
2013-05-06 10:11:00,61.0,50.0,29.98,NE,47,4.0,8.0,66,0.00,,,0.00,,2013-05-06 14:11:00,
2013-05-06 10:21:00,62.0,51.0,29.99,ENE,60,6.0,11.0,66,0.00,,,0.00,,2013-05-06 14:21:00,
2013-05-06 10:32:00,63.0,52.0,29.99,East,90,3.0,12.0,67,0.00,,,0.00,,2013-05-06 14:32:00,
2013-05-06 10:42:00,64.0,52.0,29.98,ENE,78,6.0,11.0,64,0.00,,,0.00,,2013-05-06 14:42:00,
2013-05-06 10:52:00,64.0,52.0,29.98,ENE,78,6.0,11.0,64,0.00,,,0.00,,2013-05-06 14:52:00,
2013-05-06 11:01:00,64.0,52.0,29.98,ENE,60,3.0,14.0,64,0.00,,,0.00,,2013-05-06 15:01:00,
2013-05-06 11:11:00,64.0,52.0,29.98,ENE,60,3.0,14.0,64,0.00,,,0.00,,2013-05-06 15:11:00,
2013-05-06 11:21:00,65.0,52.0,29.98,NE,49,6.0,12.0,63,0.00,,,0.00,,2013-05-06 15:21:00,
2013-05-06 11:33:00,65.0,52.0,29.98,ENE,63,8.0,13.0,63,0.00,,,0.00,,2013-05-06 15:33:00,
2013-05-06 11:42:00,65.0,52.0,29.98,ENE,63,8.0,13.0,63,0.00,,,0.00,,2013-05-06 15:42:00,
2013-05-06 11:53:00,65.0,53.0,29.98,ESE,115,5.0,10.0,64,0.00,,,0.00,,2013-05-06 15:53:00,
2013-05-06 12:03:00,65.0,53.0,29.98,ENE,68,5.0,9.0,64,0.00,,,0.00,,2013-05-06 16:03:00,
2013-05-06 12:13:00,65.0,53.0,29.98,ENE,68,5.0,9.0,64,0.00,,,0.00,,2013-05-06 16:13:00,
2013-05-06 12:23:00,67.0,53.0,29.98,NE,52,7.0,10.0,61,0.00,,,0.00,,2013-05-06 16:23:00,
2013-05-06 12:32:00,67.0,54.0,29.98,East,90,4.0,11.0,62,0.00,,,0.00,,2013-05-06 16:32:00,
2013-05-06 12:41:00,67.0,54.0,29.98,East,90,4.0,11.0,62,0.00,,,0.00,,2013-05-06 16:41:00,
2013-05-06 12:52:00,66.0,52.0,29.97,ENE,57,6.0,10.0,61,0.00,,,0.00,,2013-05-06 16:52:00,
2013-05-06 13:02:00,67.0,54.0,29.97,NE,49,2.0,8.0,63,0.00,,,0.00,,2013-05-06 17:02:00,
2013-05-06 13:12:00,67.0,54.0,29.97,NE,49,2.0,8.0,63,0.00,,,0.00,,2013-05-06 17:12:00,
2013-05-06 13:23:00,69.0,55.0,29.97,ENE,75,7.0,10.0,60,0.00,,,0.00,,2013-05-06 17:23:00,
2013-05-06 13:31:00,69.0,53.0,29.96,NE,41,4.0,10.0,57,0.00,,,0.00,,2013-05-06 17:31:00,
2013-05-06 13:42:00,69.0,53.0,29.96,NE,41,4.0,10.0,57,0.00,,,0.00,,2013-05-06 17:42:00,
2013-05-06 13:52:00,68.0,54.0,29.96,NNE,27,5.0,10.0,60,0.00,,,0.00,,2013-05-06 17:52:00,
2013-05-06 14:01:00,69.0,55.0,29.96,NE,54,2.0,16.0,60,0.00,,,0.00,,2013-05-06 18:01:00,
2013-05-06 14:12:00,69.0,55.0,29.96,NE,54,2.0,16.0,60,0.00,,,0.00,,2013-05-06 18:12:00,
2013-05-06 14:21:00,69.0,54.0,29.96,ESE,117,5.0,11.0,58,0.00,,,0.00,,2013-05-06 18:21:00,
2013-05-06 14:31:00,69.0,55.0,29.96,NE,56,3.0,9.0,61,0.00,,,0.00,,2013-05-06 18:31:00,
2013-05-06 14:43:00,69.0,55.0,29.96,NE,56,3.0,9.0,61,0.00,,,0.00,,2013-05-06 18:43:00,
2013-05-06 14:52:00,69.0,55.0,29.96,ENE,74,2.0,6.0,60,0.00,,,0.00,,2013-05-06 18:52:00,
2013-05-06 15:01:00,69.0,55.0,29.95,East,101,3.0,9.0,61,0.00,,,0.00,,2013-05-06 19:01:00,
2013-05-06 15:11:00,69.0,55.0,29.95,East,101,3.0,9.0,61,0.00,,,0.00,,2013-05-06 19:11:00,
2013-05-06 15:22:00,69.0,55.0,29.95,ESE,117,5.0,12.0,60,0.00,,,0.00,,2013-05-06 19:22:00,
2013-05-06 15:32:00,70.0,54.0,29.94,NE,46,7.0,12.0,57,0.00,,,0.00,,2013-05-06 19:32:00,
2013-05-06 15:41:00,70.0,54.0,29.94,NE,46,7.0,12.0,57,0.00,,,0.00,,2013-05-06 19:41:00,
2013-05-06 15:52:00,71.0,55.0,29.94,NE,40,4.0,7.0,57,0.00,,,0.00,,2013-05-06 19:52:00,
2013-05-06 16:01:00,71.0,55.0,29.94,NE,51,5.0,15.0,57,0.00,,,0.00,,2013-05-06 20:01:00,
2013-05-06 16:11:00,71.0,55.0,29.94,NE,51,5.0,15.0,57,0.00,,,0.00,,2013-05-06 20:11:00,
2013-05-06 16:21:00,70.0,55.0,29.94,ENE,76,6.0,11.0,58,0.00,,,0.00,,2013-05-06 20:21:00,
2013-05-06 16:32:00,70.0,55.0,29.93,NE,50,7.0,14.0,59,0.00,,,0.00,,2013-05-06 20:32:00,
2013-05-06 16:42:00,70.0,55.0,29.93,NE,50,7.0,14.0,59,0.00,,,0.00,,2013-05-06 20:42:00,
2013-05-06 16:52:00,71.0,57.0,29.93,ENE,77,3.0,8.0,61,0.00,,,0.00,,2013-05-06 20:52:00,
2013-05-06 17:01:00,70.0,55.0,29.93,ENE,65,5.0,12.0,59,0.00,,,0.00,,2013-05-06 21:01:00,
2013-05-06 17:11:00,70.0,55.0,29.93,ENE,65,5.0,12.0,59,0.00,,,0.00,,2013-05-06 21:11:00,
2013-05-06 17:21:00,70.0,55.0,29.93,ENE,57,6.0,12.0,60,0.00,,,0.00,,2013-05-06 21:21:00,
2013-05-06 17:32:00,69.0,55.0,29.93,NE,54,7.0,14.0,60,0.00,,,0.00,,2013-05-06 21:32:00,
2013-05-06 17:42:00,69.0,55.0,29.93,NE,54,7.0,14.0,60,0.00,,,0.00,,2013-05-06 21:42:00,
2013-05-06 17:53:00,69.0,55.0,29.93,NNE,32,7.0,13.0,61,0.00,,,0.00,,2013-05-06 21:53:00,
2013-05-06 18:03:00,68.0,54.0,29.93,NE,48,7.0,11.0,62,0.00,,,0.00,,2013-05-06 22:03:00,
2013-05-06 18:12:00,68.0,54.0,29.93,NE,48,7.0,11.0,62,0.00,,,0.00,,2013-05-06 22:12:00,
2013-05-06 18:22:00,68.0,54.0,29.93,NE,47,6.0,10.0,61,0.00,,,0.00,,2013-05-06 22:22:00,
2013-05-06 18:33:00,68.0,54.0,29.94,ENE,60,4.0,9.0,61,0.00,,,0.00,,2013-05-06 22:33:00,
2013-05-06 18:45:00,68.0,54.0,29.94,ENE,60,4.0,9.0,61,0.00,,,0.00,,2013-05-06 22:45:00,
2013-05-06 18:52:00,69.0,54.0,29.93,ENE,61,4.0,9.0,59,0.00,,,0.00,,2013-05-06 22:52:00,
2013-05-06 19:02:00,69.0,54.0,29.93,NE,51,5.0,9.0,59,0.00,,,0.00,,2013-05-06 23:02:00,
2013-05-06 19:12:00,69.0,54.0,29.93,NE,51,5.0,9.0,59,0.00,,,0.00,,2013-05-06 23:12:00,
2013-05-06 19:22:00,68.0,54.0,29.94,NE,51,5.0,12.0,60,0.00,,,0.00,,2013-05-06 23:22:00,
2013-05-06 19:31:00,67.0,53.0,29.94,ENE,63,6.0,14.0,61,0.00,,,0.00,,2013-05-06 23:31:00,
2013-05-06 19:41:00,67.0,53.0,29.94,ENE,63,6.0,14.0,61,0.00,,,0.00,,2013-05-06 23:41:00,
2013-05-06 19:52:00,67.0,55.0,29.95,NE,48,5.0,9.0,65,0.00,,,0.00,,2013-05-06 23:52:00,
2013-05-06 20:01:00,67.0,55.0,29.95,ENE,78,3.0,6.0,66,0.00,,,0.00,,2013-05-07 00:01:00,
2013-05-06 20:11:00,67.0,55.0,29.95,ENE,78,3.0,6.0,66,0.00,,,0.00,,2013-05-07 00:11:00,
2013-05-06 20:21:00,67.0,56.0,29.96,NE,34,4.0,7.0,67,0.00,,,0.00,,2013-05-07 00:21:00,
2013-05-06 20:31:00,67.0,56.0,29.96,East,79,1.0,6.0,68,0.00,,,0.00,,2013-05-07 00:31:00,
2013-05-06 20:41:00,67.0,56.0,29.96,East,79,1.0,6.0,68,0.00,,,0.00,,2013-05-07 00:41:00,
2013-05-06 20:52:00,66.0,55.0,29.96,ENE,57,2.0,6.0,67,0.00,,,0.00,,2013-05-07 00:52:00,
2013-05-06 21:01:00,66.0,55.0,29.96,NE,46,3.0,7.0,68,0.00,,,0.00,,2013-05-07 01:01:00,
2013-05-06 21:11:00,66.0,55.0,29.96,NE,46,3.0,7.0,68,0.00,,,0.00,,2013-05-07 01:11:00,
2013-05-06 21:21:00,65.0,55.0,29.97,ENE,59,1.0,2.0,69,0.00,,,0.00,,2013-05-07 01:21:00,
2013-05-06 21:32:00,65.0,55.0,29.97,ENE,71,2.0,3.0,70,0.00,,,0.00,,2013-05-07 01:32:00,
2013-05-06 21:42:00,65.0,55.0,29.97,ENE,71,2.0,3.0,70,0.00,,,0.00,,2013-05-07 01:42:00,
2013-05-06 21:53:00,65.0,55.0,29.98,ENE,68,0.0,2.0,71,0.00,,,0.00,,2013-05-07 01:53:00,
2013-05-06 22:02:00,64.0,54.0,29.98,ENE,63,0.0,1.0,71,0.00,,,0.00,,2013-05-07 02:02:00,
2013-05-06 22:11:00,64.0,54.0,29.98,ENE,63,0.0,1.0,71,0.00,,,0.00,,2013-05-07 02:11:00,
2013-05-06 22:21:00,64.0,55.0,29.98,ENE,63,0.0,1.0,73,0.00,,,0.00,,2013-05-07 02:21:00,
2013-05-06 22:31:00,63.0,55.0,29.98,ENE,64,0.0,1.0,74,0.00,,,0.00,,2013-05-07 02:31:00,
2013-05-06 22:41:00,63.0,55.0,29.98,ENE,64,0.0,1.0,74,0.00,,,0.00,,2013-05-07 02:41:00,
2013-05-06 22:52:00,62.0,55.0,29.99,ENE,64,0.0,0.0,77,0.00,,,0.00,,2013-05-07 02:52:00,
2013-05-06 23:01:00,61.0,54.0,29.99,ENE,64,0.0,1.0,79,0.00,,,0.00,,2013-05-07 03:01:00,
2013-05-06 23:11:00,61.0,54.0,29.99,ENE,64,0.0,1.0,79,0.00,,,0.00,,2013-05-07 03:11:00,
2013-05-06 23:21:00,61.0,55.0,29.99,ENE,64,0.0,1.0,80,0.00,,,0.00,,2013-05-07 03:21:00,
2013-05-06 23:32:00,61.0,54.0,29.99,ENE,64,0.0,0.0,79,0.00,,,0.00,,2013-05-07 03:32:00,
2013-05-06 23:42:00,61.0,54.0,29.99,ENE,64,0.0,0.0,79,0.00,,,0.00,,2013-05-07 03:42:00,
2013-05-06 23:53:00,61.0,55.0,29.99,ENE,64,0.0,0.0,81,0.00,,,0.00,,2013-05-07 03:53:00,